OK1FRN-6 Weather Reports


time (UTC)temp
C
wind
direction
speed
KPH
gust
KPH
rain 1hr
cm
rain 24hr
cm
rain mn
cm
humidity
%
barometer
mb
20260507162005 15 249 4.8 11.3 0.00 0.00 0.00 55 1014.4
20260507161458 16 215 4.8 8.0 0.00 0.00 0.00 55 1014.4
20260507160952 16 233 4.8 11.3 0.00 0.00 0.00 55 1014.4
20260507160446 16 272 4.8 11.3 0.00 0.00 0.00 55 1014.4
20260507155940 16 237 4.8 9.7 0.00 0.00 0.00 54 1014.3
20260507155433 16 221 6.4 11.3 0.00 0.00 0.00 53 1014.3
20260507154927 16 212 4.8 12.9 0.00 0.00 0.00 53 1014.3
20260507154421 17 221 4.8 11.3 0.00 0.00 0.00 53 1014.2
20260507153914 17 247 3.2 8.0 0.00 0.00 0.00 54 1014.2
20260507152902 17 256 4.8 8.0 0.00 0.00 0.00 53 1014.1
20260507152357 17 278 4.8 9.7 0.00 0.00 0.00 53 1014.0
20260507151849 17 268 3.2 8.0 0.00 0.00 0.00 53 1014.0
20260507151342 17 247 3.2 6.4 0.00 0.00 0.00 53 1014.0
20260507150836 17 260 3.2 8.0 0.00 0.00 0.00 53 1013.9
20260507145823 18 252 6.4 12.9 0.00 0.00 0.00 51 1013.9
20260507145316 18 264 6.4 12.9 0.00 0.00 0.00 51 1013.9
20260507144304 18 295 4.8 9.7 0.00 0.00 0.00 51 1013.8
20260507143757 18 263 4.8 8.0 0.00 0.00 0.00 50 1013.8
20260507142238 18 204 4.8 11.3 0.00 0.00 0.00 49 1013.6
20260507141225 18 231 4.8 9.7 0.00 0.00 0.00 49 1013.6
20260507140718 18 258 3.2 8.0 0.00 0.00 0.00 49 1013.5
20260507135705 18 238 4.8 9.7 0.00 0.00 0.00 48 1013.6
20260507135158 18 132 4.8 9.7 0.00 0.00 0.00 47 1013.6
20260507134652 18 141 3.2 4.8 0.00 0.00 0.00 48 1013.6
20260507133639 18 226 4.8 8.0 0.00 0.00 0.00 48 1013.7
20260507133132 18 202 4.8 11.3 0.00 0.00 0.00 48 1013.7
20260507132119 18 253 3.2 9.7 0.00 0.00 0.00 50 1013.7
20260507131106 18 237 4.8 11.3 0.00 0.00 0.00 50 1013.7
20260507130053 17 176 4.8 8.0 0.00 0.00 0.00 49 1013.7
20260507125040 18 256 3.2 6.4 0.00 0.00 0.00 49 1013.7
20260507123521 18 210 6.4 9.7 0.00 0.00 0.00 50 1013.6
20260507123014 17 146 3.2 4.8 0.00 0.00 0.00 51 1013.7
20260507122508 17 219 4.8 6.4 0.00 0.00 0.00 51 1013.7
20260507122001 17 234 3.2 6.4 0.00 0.00 0.00 50 1013.6
20260507121455 17 244 4.8 11.3 0.00 0.00 0.00 50 1013.6
20260507120949 17 190 4.8 11.3 0.00 0.00 0.00 50 1013.6
20260507115936 17 200 4.8 9.7 0.00 0.00 0.00 50 1013.6
20260507114923 17 229 4.8 9.7 0.00 0.00 0.00 52 1013.6
20260507114416 17 241 4.8 8.0 0.00 0.00 0.00 53 1013.6
20260507113910 17 217 3.2 8.0 0.00 0.00 0.00 53 1013.6
20260507113404 17 234 4.8 12.9 0.00 0.00 0.00 53 1013.6
20260507112857 17 279 4.8 6.4 0.00 0.00 0.00 52 1013.6
20260507112351 16 243 4.8 11.3 0.00 0.00 0.00 52 1013.7
20260507111845 17 236 3.2 8.0 0.00 0.00 0.00 52 1013.6
20260507111338 17 205 4.8 11.3 0.00 0.00 0.00 51 1013.5
20260507110832 17 244 3.2 6.4 0.00 0.00 0.00 52 1013.5
20260507110325 17 227 3.2 6.4 0.00 0.00 0.00 52 1013.5
20260507105819 17 233 3.2 8.0 0.00 0.00 0.00 51 1013.5
20260507105312 17 225 4.8 9.7 0.00 0.00 0.00 50 1013.5
20260507104806 17 243 4.8 11.3 0.00 0.00 0.00 50 1013.5
20260507104259 17 262 3.2 6.4 0.00 0.00 0.00 51 1013.4
20260507103753 17 235 4.8 8.0 0.00 0.00 0.00 51 1013.4
20260507102740 17 237 6.4 12.9 0.00 0.00 0.00 49 1013.5
20260507101727 18 227 6.4 11.3 0.00 0.00 0.00 49 1013.4
20260507101221 18 244 4.8 9.7 0.00 0.00 0.00 48 1013.4
20260507100714 18 249 6.4 11.3 0.00 0.00 0.00 47 1013.4
20260507095701 19 233 4.8 12.9 0.00 0.00 0.00 46 1013.2
20260507095154 20 176 3.2 8.0 0.00 0.00 0.00 45 1013.1
20260507094141 19 250 6.4 9.7 0.00 0.00 0.00 48 1012.9
20260507093634 18 227 6.4 12.9 0.00 0.00 0.00 50 1012.9
20260507093128 18 226 6.4 11.3 0.00 0.00 0.00 49 1013.0
20260507092621 18 208 6.4 14.5 0.00 0.00 0.00 47 1012.8
20260507092115 19 242 6.4 11.3 0.00 0.00 0.00 49 1012.7
20260507091101 19 219 4.8 11.3 0.00 0.00 0.00 48 1012.7
20260507090048 19 224 6.4 9.7 0.00 0.00 0.00 50 1012.6
20260507085542 19 179 4.8 8.0 0.00 0.00 0.00 51 1012.6
20260507085035 19 163 6.4 8.0 0.00 0.00 0.00 49 1012.5
20260507084022 19 238 4.8 14.5 0.00 0.00 0.00 51 1012.4
20260507083515 19 237 6.4 11.3 0.00 0.00 0.00 51 1012.4
20260507083009 19 241 4.8 12.9 0.00 0.00 0.00 52 1012.3
20260507081956 19 217 6.4 9.7 0.00 0.00 0.00 51 1012.3
20260507081449 19 211 6.4 16.1 0.00 0.00 0.00 52 1012.3
20260507080942 18 197 6.4 11.3 0.00 0.00 0.00 53 1012.2
20260507080436 18 207 6.4 14.5 0.00 0.00 0.00 53 1012.2
20260507075929 18 193 6.4 12.9 0.00 0.00 0.00 56 1012.1
20260507075423 18 263 6.4 12.9 0.00 0.00 0.00 55 1012.1
20260507074410 18 226 4.8 8.0 0.00 0.00 0.00 59 1012.1
20260507073357 17 191 4.8 11.3 0.00 0.00 0.00 58 1012.1
20260507072344 17 203 6.4 9.7 0.00 0.00 0.00 60 1011.9
20260507071331 16 257 4.8 8.0 0.00 0.00 0.00 63 1011.9
20260507070825 16 222 4.8 9.7 0.00 0.00 0.00 61 1011.8
20260507070319 17 195 4.8 12.9 0.00 0.00 0.00 60 1011.8
20260507065812 17 206 6.4 11.3 0.00 0.00 0.00 61 1011.7
20260507065306 17 188 4.8 9.7 0.00 0.00 0.00 62 1011.7
20260507064759 17 208 3.2 6.4 0.00 0.00 0.00 66 1011.6
20260507063746 16 234 3.2 4.8 0.00 0.00 0.00 70 1011.6
20260507063240 16 227 3.2 6.4 0.00 0.00 0.00 74 1011.6
20260507062734 15 240 3.2 4.8 0.00 0.00 0.00 75 1011.6
20260507062227 15 169 4.8 8.0 0.00 0.00 0.00 75 1011.5
20260507061215 14 255 3.2 8.0 0.00 0.00 0.00 80 1011.5
20260507060709 13 219 3.2 4.8 0.00 0.00 0.00 82 1011.3
20260507060203 13 168 3.2 4.8 0.00 0.00 0.00 84 1011.3
20260507055657 13 233 3.2 4.8 0.00 0.00 0.00 85 1011.2
20260507055151 13 217 3.2 6.4 0.00 0.00 0.00 86 1011.1
20260507054138 13 133 1.6 3.2 0.00 0.00 0.00 89 1011.0
20260507052620 12 106 0.0 0.0 0.00 0.00 0.00 93 1010.9
20260507051609 11 315 0.0 0.0 0.00 0.00 0.00 94 1010.8
20260507050558 10 334 0.0 0.0 0.00 0.00 0.00 93 1010.7
20260507050051 9 60 0.0 0.0 0.00 0.00 0.00 93 1010.7
20260507045546 8 54 0.0 0.0 0.00 0.00 0.00 91 1010.6
20260507045040 8 355 0.0 0.0 0.00 0.00 0.00 90 1010.6
20260507044534 8 315 0.0 0.0 0.00 0.00 0.00 89 1010.5
20260507044028 8 18 0.0 0.0 0.00 0.00 0.00 89 1010.4
20260507043523 8 29 0.0 0.0 0.00 0.00 0.00 88 1010.3
20260507043017 8 350 0.0 0.0 0.00 0.00 0.00 88 1010.2
20260507042006 8 0 0.0 0.0 0.00 0.00 0.00 88 1010.1
20260507041500 8 359 0.0 0.0 0.00 0.00 0.00 88 1010.1
20260507040954 8 63 0.0 0.0 0.00 0.00 0.00 88 1010.1
20260507040449 8 333 0.0 0.0 0.00 0.00 0.00 88 1010.2
20260507035943 8 315 0.0 0.0 0.00 0.00 0.00 87 1010.1
20260507035437 8 315 0.0 0.0 0.00 0.00 0.00 87 1010.1
20260507034932 8 315 0.0 0.0 0.00 0.00 0.00 86 1010.1
20260507034426 8 315 0.0 0.0 0.00 0.00 0.00 86 1010.1
20260507033415 8 350 0.0 0.0 0.00 0.00 0.00 86 1009.9
20260507032909 8 0 0.0 0.0 0.00 0.00 0.00 86 1009.8
20260507025835 8 315 0.0 0.0 0.00 0.00 0.00 86 1009.7
20260507025329 8 315 0.0 0.0 0.00 0.00 0.00 86 1009.6
20260507024823 8 315 0.0 0.0 0.00 0.00 0.00 86 1009.7
20260507024318 8 315 0.0 0.0 0.00 0.00 0.00 85 1009.7
20260507023812 8 315 0.0 0.0 0.00 0.00 0.00 85 1009.6
20260507022801 9 312 0.0 0.0 0.00 0.00 0.00 85 1009.7
20260507022255 9 306 0.0 0.0 0.00 0.00 0.00 85 1009.7
20260507014714 10 280 0.0 0.0 0.00 0.00 0.00 85 1009.3
20260507014209 10 274 0.0 0.0 0.00 0.00 0.00 85 1009.3
20260507012651 10 315 0.0 0.0 0.00 0.00 0.00 85 1009.3
20260507011640 10 262 0.0 0.0 0.00 0.00 0.00 85 1009.2
20260507011134 10 286 0.0 0.0 0.00 0.00 0.00 85 1009.2
20260507010628 10 315 0.0 0.0 0.00 0.00 0.00 85 1009.1
20260507010122 11 315 0.0 0.0 0.00 0.00 0.00 85 1009.0
20260507005616 11 315 0.0 0.0 0.00 0.00 0.00 85 1009.0
20260507005111 11 315 0.0 0.0 0.00 0.00 0.00 85 1009.0
20260507004059 11 315 0.0 0.0 0.00 0.00 0.00 85 1008.7
20260507003553 11 274 0.0 0.0 0.00 0.00 0.00 85 1008.6
20260507003047 11 308 0.0 0.0 0.00 0.00 0.00 85 1008.7
20260507001529 11 306 0.0 0.0 0.00 0.00 0.00 86 1008.6
20260507000517 11 267 0.0 0.0 0.00 0.00 0.00 86 1008.7
20260507000011 11 260 0.0 0.0 0.00 0.00 0.00 85 1008.6
20260506235000 12 319 0.0 0.0 0.00 0.00 0.00 85 1008.4
20260506234454 12 0 0.0 0.0 0.00 0.00 0.00 85 1008.4
20260506233948 12 293 0.0 0.0 0.00 0.00 0.00 85 1008.4
20260506233442 12 226 0.0 0.0 0.00 0.00 0.00 85 1008.3
20260506232936 12 278 0.0 0.0 0.00 0.00 0.00 85 1008.3
20260506232430 12 315 0.0 0.0 0.00 0.00 0.00 85 1008.1
20260506231924 12 233 0.0 0.0 0.00 0.00 0.00 86 1008.1
20260506231418 12 225 0.0 0.0 0.00 0.00 0.00 86 1008.1
20260506230406 12 327 0.0 0.0 0.00 0.00 0.00 86 1008.3
20260506224848 12 241 0.0 0.0 0.00 0.00 0.00 86 1008.1
20260506224342 12 222 0.0 0.0 0.00 0.00 0.00 87 1008.0
20260506223836 12 0 0.0 0.0 0.00 0.00 0.00 88 1007.9
20260506223330 12 9 0.0 0.0 0.00 0.00 0.00 88 1007.8
20260506222824 12 87 0.0 0.0 0.00 0.00 0.00 89 1007.9
20260506222318 13 59 0.0 0.0 0.00 0.00 0.00 86 1008.2
20260506221306 13 226 0.0 0.0 0.00 0.00 0.00 86 1008.3
20260506220800 13 220 0.0 0.0 0.00 0.00 0.00 86 1008.3
20260506215242 13 297 0.0 0.0 0.00 0.00 0.00 84 1008.0
20260506214230 13 251 1.6 1.6 0.00 0.00 0.00 83 1007.9
20260506212712 13 270 1.6 3.2 0.00 0.00 0.00 83 1007.7
20260506212205 13 270 0.0 0.0 0.00 0.00 0.00 83 1007.6
20260506211659 13 270 0.0 0.0 0.00 0.00 0.00 83 1007.5
20260506211153 13 297 0.0 0.0 0.00 0.00 0.00 83 1007.5
20260506210647 13 0 0.0 0.0 0.00 0.00 0.00 83 1007.5
20260506210141 13 0 0.0 0.0 0.00 0.00 0.00 83 1007.5
20260506204623 13 294 0.0 1.6 0.00 0.00 0.00 83 1007.6
20260506203611 13 359 0.0 1.6 0.00 0.00 0.00 84 1007.4
20260506203105 13 23 0.0 3.2 0.00 0.00 0.00 84 1007.5
20260506201546 14 155 1.6 3.2 0.00 0.00 0.00 83 1008.0
20260506201040 14 336 1.6 3.2 0.00 0.00 0.00 81 1008.0
20260506200534 14 293 1.6 3.2 0.00 0.00 0.00 81 1008.1
20260506200028 15 281 3.2 8.0 0.00 0.00 0.00 80 1008.0
20260506195015 15 263 4.8 11.3 0.00 0.00 0.00 79 1008.0
20260506194509 15 236 3.2 6.4 0.00 0.00 0.00 78 1007.9
20260506194003 15 248 1.6 3.2 0.00 0.00 0.00 76 1007.4
20260506193457 15 259 1.6 3.2 0.00 0.00 0.00 76 1006.9
20260506191938 15 317 0.0 0.0 0.00 0.00 0.00 74 1006.2
20260506190926 15 10 0.0 0.0 0.00 0.00 0.00 73 1006.0
20260506190420 15 319 0.0 0.0 0.00 0.00 0.00 71 1006.0
20260506185913 16 314 0.0 0.0 0.00 0.00 0.00 71 1006.1
20260506185407 16 0 0.0 0.0 0.00 0.00 0.00 71 1006.1
20260506184901 16 0 0.0 0.0 0.00 0.00 0.00 70 1005.9
20260506184354 16 0 0.0 0.0 0.00 0.00 0.00 70 1005.8
20260506183848 16 359 0.0 0.0 0.00 0.00 0.00 69 1005.7
20260506182835 16 315 0.0 0.0 0.00 0.00 0.00 69 1005.5
20260506181823 16 315 0.0 0.0 0.00 0.00 0.00 69 1005.5
20260506181316 17 315 0.0 0.0 0.00 0.00 0.00 69 1005.4
20260506175251 17 347 0.0 1.6 0.00 0.00 0.00 69 1005.3
20260506174238 17 357 0.0 0.0 0.00 0.00 0.00 69 1005.2
20260506173732 17 35 0.0 1.6 0.00 0.00 0.00 69 1005.2
20260506173225 17 32 0.0 1.6 0.00 0.00 0.00 69 1005.2
20260506172719 17 0 0.0 0.0 0.00 0.00 0.00 68 1005.0
20260506172212 17 331 0.0 0.0 0.00 0.00 0.00 68 1005.1
20260506171706 18 322 0.0 0.0 0.00 0.00 0.00 68 1005.1
20260506171159 18 0 0.0 0.0 0.00 0.00 0.00 69 1005.0
20260506170653 18 357 0.0 1.6 0.00 0.00 0.00 69 1005.0
20260506165640 18 42 0.0 0.0 0.00 0.00 0.00 69 1004.9
20260506165134 18 1 0.0 0.0 0.00 0.00 0.00 69 1004.9
20260506164627 18 0 0.0 0.0 0.00 0.00 0.00 69 1004.9
20260506164120 18 33 0.0 0.0 0.00 0.00 0.00 69 1005.0